Location: Newark
(23.3970°S, 47.6010°W)
Time: 12:27:26
(UTC+00:00)

Tiros 1 despin weight - Pass Details

Date: 27 February 2020
Orbit: 593 x 642 km, 48.2° (Epoch: 05 April)

Event Time Altitude Azimuth Distance (km) Brightness Sun altitude
Rises 18:55:24 0° 203° (SSW) 2,964 ? 37.1°
Reaches altitude 10° 18:59:30 10° 168° (SSE) 2,051 ? 36.2°
Maximum altitude 19:01:00 11° 150° (SSE) 1,959 ? 35.8°
Drops below altitude 10° 19:02:31 10° 131° (SE) 2,046 ? 35.5°
Sets 19:06:35 0° 97° (E) 2,944 ? 34.6°
